Location: Dos Palmas
(32.4468°N, 116.8732°W)
Time: 02:11:47
(UTC+00:00)

Helios 1A Rocket - Pass Details

Date: 20 June 2021
Orbit: 563 x 585 km, 98.3° (Epoch: 27 July)

Event Time Altitude Azimuth Distance (km) Brightness Sun altitude
Exits shadow 04:01:09 - 184° (S) 2,617 5.9 -12.0°
Reaches altitude 10° 04:03:02 10° 192° (SSW) 1,872 5.3 -12.3°
Maximum altitude 04:06:49 38° 261° (W) 882 4.2 -13.0°
Drops below altitude 10° 04:10:36 10° 330° (NNW) 1,872 6.7 -13.6°
Sets 04:12:51 0° 338° (NNW) 2,769 7.6 -13.9°
